Regional Weather Roundup
Issued by NWS

Home | Current Version | Previous Version | Graphics & Text | Print | Product List | Glossary On
Versions: 1 2 3 4 5 6 7 8 9 10 11 12 13 14 15 16 17 18 19 20 21 22 23 24 25 26 27 28 29 30 31 32 33 34 35 36 37 38 39 40 41 42 43 44 45 46 47 48 49 50
000
ASUS45 KABQ 182301
RWRNM
WEATHER ROUNDUP FOR NEW MEXICO
NATIONAL WEATHER SERVICE ALBUQUERQUE NM
500 PM MDT THU SEP 18 2014

NOTE: "FAIR" MEANS FEW OR NO CLOUDS BELOW 12,000 FEET AGL WITH NO
       SIGNIFICANT WEATHER OR OBSTRUCTIONS TO VISION.

      THIS PRODUCT IS RELEASED AS TWO VERSIONS.  ONE VERSION NEAR
      THE TOP OF THE HOUR CONTAINING PRELIMINARY DATA FROM ALBUQUERQUE
      AND OTHER STATIONS.  A FINAL VERSION WITH ADDITIONAL DATA IS
      ISSUED ABOUT 10 MINUTES AFTER THE HOUR.

NMZ501-503-504-510>518-190000-
NORTHWEST PLATEAU/NORTHCENTRAL MOUNTAINS

CITY           SKY/WX    TMP DP  RH WIND       PRES   REMARKS
FARMINGTON     SUNNY     85  39  19 VRB6      29.95F
LOS ALAMOS     SUNNY     78  31  17 SE6       30.10S
SANTA FE       SUNNY     82  44  26 S21       30.01F
TAOS           SUNNY     79  34  19 SE18      30.09S
ANGEL FIRE     FAIR      71  28  20 E12G22    30.23R

$$
NMZ402-403-502-505>509-190000-
WESTCENTRAL MOUNTAINS/SOUTHWEST MOUNTAINS

CITY           SKY/WX    TMP DP  RH WIND       PRES   REMARKS
GALLUP         PTSUNNY   76  47  35 SW8       30.03F
GRANTS         SUNNY     79  39  24 SE13G20   30.06F
SILVER CITY    CLOUDY    66  59  77 E9        30.02F

$$
NMZ407-409-411-412-190000-
SOUTHERN DESERTS

CITY           SKY/WX    TMP DP  RH WIND       PRES   REMARKS
LORDSBURG      CLOUDY    68  63  83 MISG      29.94F
DEMING         LGT RAIN  65  64  97 E13       29.95S FOG
LAS CRUCES     CLOUDY    65  64  97 NE6       29.97F
ALAMOGORDO     CLOUDY    68  63  83 CALM      29.97F
T OR C         CLOUDY    70  60  70 CALM      29.99S

$$
NMZ519>523-190000-
CENTRAL VALLEYS/CENTRAL HIGHLANDS

CITY           SKY/WX    TMP DP  RH WIND       PRES   REMARKS
ALBUQUERQUE    MOSUNNY   81  50  33 S8        29.97F
DOUBLE EAGLE   MOSUNNY   81  46  30 S13       30.00F
CLINES CORNERS PTSUNNY   72  51  47 E9G18     30.10S
BELEN          FAIR      78  55  44 S14       29.98S
SOCORRO        CLOUDY    70  64  80 SE6       29.99S

$$
NMZ524>526-539-540-190000-
SOUTHCENTRAL MOUNTAINS

CITY           SKY/WX    TMP DP  RH WIND       PRES   REMARKS
RUIDOSO        NOT AVBL

$$
NMZ527>531-190000-
NORTHEAST HIGHLANDS/NORTHEAST PLAINS

CITY           SKY/WX    TMP DP  RH WIND       PRES   REMARKS
LAS VEGAS      SUNNY     74  47  38 E14       30.12R
RATON          SUNNY     78  41  26 E12       30.07R
CLAYTON        MOSUNNY   76  56  49 SE13      30.03F

$$
NMZ532>537-190000-
EASTCENTRAL PLAINS

CITY           SKY/WX    TMP DP  RH WIND       PRES   REMARKS
TUCUMCARI      MOSUNNY   77  61  57 S15       29.96F
CANNON AFB     NOT AVBL
CLOVIS AIRPORT   N/A     68  63  83 SE12      30.02F

$$
NMZ028-029-538-190000-
SOUTHEAST PLAINS

CITY           SKY/WX    TMP DP  RH WIND       PRES   REMARKS
ROSWELL        CLOUDY    76  64  66 S8        29.93F
CARLSBAD       CLOUDY    77  69  76 E3        29.91S
HOBBS          PTSUNNY   73  68  83 E14       29.96S


$$


USA.gov is the U.S. government's official web portal to all federal, state and local government web resources and services.